Olivia, MN

1:02 AM CDT on September 23, 2017 (GMT -0500)
Olivia Regional

Weather History for KOVL - May, 2014

Change the Weather History Date:

Monday, May 5, 2014

  Actual Average (KRWF) Record (KRWF)
Temperature  
Mean Temperature 54 °F -  
Max Temperature 66 °F 67 °F 90 °F (2000)
Min Temperature 42 °F 45 °F 25 °F (1968)
Degree Days  
Heating Degree Days 11    
Growing Degree Days 4 (Base 50)    
Moisture  
Dew Point 36 °F    
Average Humidity 49    
Maximum Humidity 71    
Minimum Humidity 34    
Precipitation  
Precipitation 0.00 in - - ()
Sea Level Pressure  
Sea Level Pressure 29.94 in    
Wind  
Wind Speed 6 mph (East)    
Max Wind Speed 13 mph    
Max Gust Speed -    
Visibility 10 miles    
Events      
Averages and records for this station are not official NWS values.
T = Trace of Precipitation, MM = Missing Value Source: NWS Daily Summary

Daily Weather History Graph

Daily Weather History Graph

Search for Another Location

Airport or City:

Trip Planner

Search our weather history database for the weather conditions in past years. The results will help you decide how hot, cold, wet, or windy it might be!

Date:

Astronomy

May. 05, 2014 Rise Set
Actual Time 6:04 AM CDT 8:30 PM CDT
Civil Twilight 5:31 AM CDT 9:02 PM CDT
Nautical Twilight 4:50 AM CDT 9:44 PM CDT
Astronomical Twilight 4:04 AM CDT 10:30 PM CDT
Moon 11:25 AM CDT (5/5) 1:14 AM CDT (5/5)
Length of Visible Light 15h 31m
Length of Day
14h 25m
Waxing Crescent, 37% of the Moon is Illuminated
May 5
Waxing Crescent
May 6
First Quarter
May 14
Full
May 21
Last Quarter
May 28
New

Hourly Weather History & Observations

Time (CDT) Temp. Windchill Dew Point Humidity Pressure Visibility Wind Dir Wind Speed Gust Speed Precip Events Conditions
12:13 AM 50.0 °F - 37.4 °F 62% 29.98 in 10.0 mi NE 3.5 mph - N/A   Overcast
12:33 AM 50.0 °F - 37.4 °F 62% 29.98 in 10.0 mi NNE 4.6 mph - N/A   Overcast
12:53 AM 50.0 °F - 37.4 °F 62% 29.97 in 10.0 mi ENE 4.6 mph - N/A   Overcast
1:12 AM 50.0 °F - 35.6 °F 58% 29.99 in 10.0 mi NE 3.5 mph - N/A   Overcast
1:33 AM 50.0 °F - 35.6 °F 58% 29.97 in 10.0 mi ENE 4.6 mph - N/A   Overcast
1:53 AM 50.0 °F - 35.6 °F 58% 29.97 in 10.0 mi ENE 3.5 mph - N/A   Overcast
2:13 AM 50.0 °F - 37.4 °F 62% 29.97 in 10.0 mi ENE 4.6 mph - N/A   Overcast
2:33 AM 50.0 °F - 37.4 °F 62% 29.96 in 10.0 mi ENE 5.8 mph - N/A   Overcast
2:53 AM 50.0 °F - 35.6 °F 58% 29.94 in 10.0 mi East 8.1 mph - N/A   Overcast
3:13 AM 50.0 °F - 35.6 °F 58% 29.93 in 10.0 mi East 9.2 mph - N/A   Mostly Cloudy
3:33 AM 50.0 °F - 33.8 °F 54% 29.93 in 10.0 mi East 6.9 mph - N/A   Scattered Clouds
3:53 AM 44.6 °F 41.4 °F 33.8 °F 66% 29.94 in 10.0 mi ENE 5.8 mph - N/A   Scattered Clouds
4:13 AM 44.6 °F 40.7 °F 33.8 °F 66% 29.94 in 10.0 mi ENE 6.9 mph - N/A   Scattered Clouds
4:33 AM 44.6 °F 41.4 °F 33.8 °F 66% 29.95 in 10.0 mi ENE 5.8 mph - N/A   Mostly Cloudy
4:53 AM 42.8 °F 38.6 °F 33.8 °F 70% 29.94 in 10.0 mi ENE 6.9 mph - N/A   Overcast
5:13 AM 46.4 °F 43.5 °F 35.6 °F 66% 29.96 in 10.0 mi ENE 5.8 mph - N/A   Overcast
5:33 AM 44.6 °F 41.4 °F 35.6 °F 71% 29.96 in 10.0 mi ENE 5.8 mph - N/A   Overcast
5:53 AM 46.4 °F 43.5 °F 35.6 °F 66% 29.95 in 10.0 mi ENE 5.8 mph - N/A   Overcast
6:13 AM 44.6 °F 42.2 °F 33.8 °F 66% 29.95 in 10.0 mi ENE 4.6 mph - N/A   Overcast
6:33 AM 46.4 °F 44.3 °F 35.6 °F 66% 29.96 in 10.0 mi ENE 4.6 mph - N/A   Overcast
6:53 AM 46.4 °F 42.9 °F 35.6 °F 66% 29.95 in 10.0 mi East 6.9 mph - N/A   Scattered Clouds
7:13 AM 46.4 °F 43.5 °F 35.6 °F 66% 29.95 in 10.0 mi East 5.8 mph - N/A   Clear
7:33 AM 50.0 °F - 35.6 °F 58% 29.96 in 10.0 mi East 6.9 mph - N/A   Clear
7:53 AM 50.0 °F - 35.6 °F 58% 29.97 in 10.0 mi East 6.9 mph - N/A   Clear
8:13 AM 50.0 °F - 33.8 °F 54% 29.97 in 10.0 mi East 5.8 mph - N/A   Clear
8:33 AM 51.8 °F - 35.6 °F 54% 29.98 in 10.0 mi East 6.9 mph - N/A   Clear
8:53 AM 53.6 °F - 35.6 °F 51% 29.98 in 10.0 mi ESE 5.8 mph - N/A   Clear
9:13 AM 53.6 °F - 35.6 °F 51% 29.97 in 10.0 mi ESE 6.9 mph - N/A   Clear
9:33 AM 53.6 °F - 35.6 °F 51% 29.98 in 10.0 mi SE 6.9 mph - N/A   Clear
9:53 AM 55.4 °F - 33.8 °F 44% 29.97 in 10.0 mi South 8.1 mph - N/A   Clear
10:13 AM 55.4 °F - 33.8 °F 44% 29.96 in 10.0 mi SSE 10.4 mph - N/A   Clear
10:33 AM 57.2 °F - 33.8 °F 41% 29.96 in 10.0 mi SE 5.8 mph - N/A   Clear
10:53 AM 57.2 °F - 32.0 °F 38% 29.97 in 10.0 mi SE 4.6 mph - N/A   Clear
11:13 AM 59.0 °F - 33.8 °F 39% 29.97 in 10.0 mi ENE 6.9 mph - N/A   Clear
11:33 AM 57.2 °F - 33.8 °F 41% 29.96 in 10.0 mi SE 4.6 mph - N/A   Clear
11:53 AM 59.0 °F - 35.6 °F 42% 29.97 in 10.0 mi SE 4.6 mph - N/A   Clear
12:13 PM 59.0 °F - 33.8 °F 39% 29.97 in 10.0 mi ESE 5.8 mph - N/A   Clear
12:33 PM 59.0 °F - 33.8 °F 39% 29.96 in 10.0 mi Calm Calm - N/A   Clear
1:13 PM 60.8 °F - 33.8 °F 36% 29.95 in 10.0 mi NNE 5.8 mph - N/A   Clear
1:33 PM 60.8 °F - 35.6 °F 39% 29.95 in 10.0 mi SSE 6.9 mph - N/A   Clear
1:53 PM 60.8 °F - 35.6 °F 39% 29.95 in 10.0 mi ESE 3.5 mph - N/A   Clear
2:13 PM 60.8 °F - 35.6 °F 39% 29.94 in 10.0 mi Calm Calm - N/A   Clear
2:33 PM 62.6 °F - 37.4 °F 39% 29.94 in 10.0 mi SE 3.5 mph - N/A   Clear
2:53 PM 62.6 °F - 35.6 °F 37% 29.93 in 10.0 mi NE 3.5 mph - N/A   Clear
3:13 PM 64.4 °F - 37.4 °F 37% 29.92 in 10.0 mi North 3.5 mph - N/A   Clear
3:53 PM 62.6 °F - 37.4 °F 39% 29.91 in 10.0 mi ENE 4.6 mph - N/A   Clear
4:13 PM 64.4 °F - 37.4 °F 37% 29.91 in 10.0 mi East 4.6 mph - N/A   Clear
4:33 PM 64.4 °F - 37.4 °F 37% 29.90 in 10.0 mi East 5.8 mph - N/A   Clear
4:53 PM 66.2 °F - 37.4 °F 35% 29.89 in 10.0 mi East 9.2 mph - N/A   Clear
5:13 PM 64.4 °F - 37.4 °F 37% 29.89 in 10.0 mi ESE 12.7 mph - N/A   Clear
5:33 PM 64.4 °F - 35.6 °F 34% 29.88 in 10.0 mi ENE 9.2 mph - N/A   Clear
5:53 PM 64.4 °F - 37.4 °F 37% 29.88 in 10.0 mi SE 8.1 mph - N/A   Clear
6:12 PM 64.4 °F - 35.6 °F 34% 29.89 in 10.0 mi East 9.2 mph - N/A   Clear
6:33 PM 64.4 °F - 35.6 °F 34% 29.88 in 10.0 mi East 6.9 mph - N/A   Clear
6:53 PM 64.4 °F - 37.4 °F 37% 29.88 in 10.0 mi East 10.4 mph - N/A   Clear
7:13 PM 62.6 °F - 35.6 °F 37% 29.88 in 10.0 mi East 9.2 mph - N/A   Clear
7:33 PM 62.6 °F - 35.6 °F 37% 29.88 in 10.0 mi East 6.9 mph - N/A   Clear
7:53 PM 62.6 °F - 37.4 °F 39% 29.89 in 10.0 mi East 9.2 mph - N/A   Clear
8:13 PM 60.8 °F - 37.4 °F 42% 29.89 in 10.0 mi ESE 8.1 mph - N/A   Clear
8:33 PM 59.0 °F - 37.4 °F 45% 29.89 in 10.0 mi East 8.1 mph - N/A   Clear
8:53 PM 59.0 °F - 37.4 °F 45% 29.89 in 10.0 mi East 6.9 mph - N/A   Clear
9:13 PM 59.0 °F - 37.4 °F 45% 29.90 in 10.0 mi East 8.1 mph - N/A   Clear
9:32 PM 59.0 °F - 37.4 °F 45% 29.90 in 10.0 mi East 8.1 mph - N/A   Clear
9:53 PM 57.2 °F - 35.6 °F 44% 29.90 in 10.0 mi East 6.9 mph - N/A   Clear
10:13 PM 57.2 °F - 35.6 °F 44% 29.91 in 10.0 mi East 6.9 mph - N/A   Clear
10:32 PM 57.2 °F - 37.4 °F 48% 29.92 in 10.0 mi East 5.8 mph - N/A   Clear
10:53 PM 53.6 °F - 35.6 °F 51% 29.92 in 10.0 mi East 6.9 mph - N/A   Clear
11:13 PM 53.6 °F - 35.6 °F 51% 29.92 in 10.0 mi East 8.1 mph - N/A   Clear
11:33 PM 53.6 °F - 37.4 °F 54% 29.92 in 10.0 mi East 10.4 mph - N/A   Clear
11:53 PM 53.6 °F - 37.4 °F 54% 29.92 in 10.0 mi ESE 9.2 mph - N/A   Clear